Regional Weather Roundup
Issued by NWS Charleston, SC

Current Version | Previous Version | Graphics & Text | Print | Product List | Glossary On
Versions: 1 2 3 4 5 6 7 8 9 10 11 12 13 14 15 16 17 18 19 20 21 22 23 24 25 26 27 28 29 30 31 32 33 34 35 36 37 38 39 40 41 42 43 44 45 46 47 48 49 50
023 ASUS42 KCHS 202012 RWRCHS REGIONAL WEATHER ROUNDUP NATIONAL WEATHER SERVICE CHARLESTON SC 300 PM EST MON NOV 20 2017 NOTE: "FAIR" INDICATES FEW OR NO CLOUDS BELOW 12,000 FEET WITH NO SIGNIFICANT WEATHER AND/OR OBSTRUCTIONS TO VISIBILITY. NOT ALL STATIONS ARE QUALITY CONTROLLED. USE DATA WITH CAUTION... ESPECIALLY DEWPOINT OBSERVATIONS. SCZ027-030-031-034>040-042>050-202100- ...SOUTHEAST SOUTH CAROLINA... CITY SKY/WX TMP DP RH WIND PRES REMARKS N CHARLESTON MOSUNNY 61 31 32 SE3 30.22F WATERFRONT PRK NOT AVBL JOHNS ISLAND FAIR 57 37 47 E6 30.23F PINOPOLIS N/A 57 37 47 VRB3 30.14F MONCKS CORNER FAIR 59 28 31 N3 30.23F SUMMERVILLE FAIR 61 30 31 E3 30.24S BEAUFORT MCAS CLOUDY 60 33 36 E7 30.22F BEAUFORT ARPT FAIR 59 36 41 E6 30.22S HILTON HEAD IS SUNNY 59 36 41 NE7 30.23F WALTERBORO CLEAR 61 32 33 NE3 30.23F ALLENDALE FAIR 61 30 31 N5 30.21F ...SOUTHERN MIDLANDS AND PEE DEE... CITY SKY/WX TMP DP RH WIND PRES REMARKS GEORGETOWN FAIR 59 34 38 SE5 30.24S KINGSTREE FAIR 59 21 23 CALM 30.23F ORANGEBURG SUNNY 60 28 29 E3 30.22F BARNWELL N/A 61 28 29 SE6 30.22S AIKEN FAIR 59 27 29 E5 30.24F MANNING FAIR 61 32 33 MISG 30.23S COLUMBIA MOSUNNY 61 26 26 S5 30.21F SUMTER SUNNY 61 23 23 E3 30.20F FLORENCE SUNNY 61 22 22 NE3 30.23F MYRTLE BEACH SUNNY 58 36 43 SE6 30.24S N MYRTLE BEACH SUNNY 61 26 26 NE7 30.22F $$ GAZ063-065-086>088-099>101-113>116-118-119-134>141-150-202100- ...SOUTHEAST GEORGIA... CITY SKY/WX TMP DP RH WIND PRES REMARKS SAVANNAH ARPT PTSUNNY 62 42 47 E9 30.21F HUNTER AAF MOSUNNY 61 46 57 NE8 30.18F FORT STEWART MOSUNNY 62 44 51 E9 30.18F STATESBORO SUNNY 62 25 24 SE5 30.20F SYLVANIA CLEAR 63 35 34 SE5 30.21F CLAXTON FAIR 65 35 33 NE6 30.21S ...CSRA...CENTRAL AND FAR SOUTHEAST GEORGIA... CITY SKY/WX TMP DP RH WIND PRES REMARKS THOMSON SUNNY 59 29 31 SE3 30.25F AUGUSTA-BUSH CLOUDY 62 27 26 NE5 30.20F AUGUSTA-DANIEL SUNNY 61 28 28 VRB6 30.21F SWAINSBORO FAIR 63 32 31 NE6 30.20F VIDALIA MOSUNNY 64 36 34 SE5 30.20S EASTMAN FAIR 65 10 12 E6 30.20F HAZLEHURST FAIR 65 13 13 NE8 30.17F ALMA SUNNY 66 45 46 E5 30.16F WAYCROSS SUNNY 69 47 44 SE8 30.16S JESUP FAIR 70 46 43 E8 30.18S BAXLEY FAIR 63 37 39 E3 30.17F BRUNSWICK SUNNY 64 48 55 NE15 30.19S SAINT SIMONS SUNNY 66 52 60 NE14 30.17F $$ SCZ027-028-034-036>038-045-046-048>050-GAZ119-141-202100- ...LAKE AND SUPPLEMENTAL COASTAL OBSERVATIONS... STATION/POSITION TIME TEMP WIND PRES WAVE SWELL AIR SEA DIR/SP/G HT/PER HT/PER/DIR (UTC) (F) (DEG/KT/KT) (MB) (FT/S) (FT/S/D) WINYAH BAY NOT AVBL LAKE MURRAY NOT AVBL ACE BASIN NERRS 1845 61 90/ 2 1024.0 FORT PULASKI 1942 56 61 50/ 13/ 19 1023.3F SAPELO ISLAND 1900 64 70/ 9 1022.0 $$ ANZ835-935-AMZ111-154-330-350-352-354-370-450-454-472-202100- ...C-MAN AND BUOY OBSERVATIONS... STATION/POSITION TIME TEMP WIND PRES WAVE SWELL AIR SEA DIR/SP/G HT/PER HT/PER/DIR (UTC) (F) (DEG/KT/KT) (MB) (FT/S) (FT/S/D) BUOY 41004 1950 59 73 40/ 12/ 19 1023.2F 4/ 6 3/ 90/ 9 BUOY 41008 1950 63 68 70/ 14/ 17 1021.7F 3/ 6 2/140/ 8 FOLLY BEACH CMAN 1900 56 70/ 10/ 13 1024.5F CAPERS NEARSHORE 1908 54 62 70/ 10/ 16 1023.7F FRIPP NEARSHORE 1908 56 62 60/ 8/ 16 1023.0S STATION/POSITION TIME TEMP WIND PRES WAVE SWELL AIR SEA DIR/SP/G HT/PER HT/PER/DIR (UTC) (F) (DEG/KT/KT) (MB) (FT/S) (FT/S/D) 5E ST. MARYS GA 1930 68 N/A 4/ 6 FRYING PAN BUOY 1950 55 69 30/ 12/ 17 1023.5R 3/ 5 2/100/ 8 BUOY 41025 1950 53 65 350/ 10/ 14 1023.8F 3/ 8 3/ 70/ 8 CAPE LOOKOUT NC 1900 330/ 5/ 7 1023.9F BUOY 41002 1950 66 77 40/ 14/ 19 1021.2F 6/ 7 3/350/ 7 BUOY 41010 NOT AVBL ST AUGUSTINE FL 2000 70 68 90/ 12/ 13 1020.7S $$

USA.gov is the U.S. government's official web portal to all federal, state and local government web resources and services.